| time (UTC) | temp F | wind direction | speed MPH | gust MPH | rain 1hr in | rain 24hr in | rain mn in | humidity % | barometer mb |
| 20260507193156 | 57 | 26 | 0.0 | 0.0 | 0.00 | 0.00 | 0.00 | 71 | 1015.6 |
| 20260507193052 | 57 | 26 | 0.0 | 0.0 | 0.00 | 0.00 | 0.00 | 71 | 1015.6 |
| 20260507192548 | 57 | 24 | 0.0 | 0.0 | 0.00 | 0.00 | 0.00 | 71 | 1015.5 |
| 20260507192111 | 57 | 24 | 0.0 | 0.0 | 0.00 | 0.00 | 0.00 | 71 | 1015.4 |
| 20260507191647 | 57 | 24 | 0.0 | 0.0 | 0.00 | 0.00 | 0.00 | 71 | 1015.4 |
| 20260507191546 | 58 | 24 | 0.0 | 0.0 | 0.00 | 0.00 | 0.00 | 71 | 1015.4 |
| 20260507191105 | 58 | 27 | 0.0 | 0.0 | 0.00 | 0.00 | 0.00 | 70 | 1015.4 |
| 20260507190617 | 58 | 26 | 0.0 | 0.0 | 0.00 | 0.00 | 0.00 | 70 | 1015.4 |
| 20260507185553 | 58 | 53 | 0.0 | 0.0 | 0.00 | 0.04 | 0.00 | 70 | 1015.3 |
| 20260507185039 | 58 | 26 | 0.0 | 0.0 | 0.00 | 0.04 | 0.00 | 70 | 1015.3 |
| 20260507184652 | 58 | 22 | 0.0 | 0.0 | 0.00 | 0.01 | 0.00 | 69 | 1015.3 |
| 20260507184550 | 58 | 22 | 0.0 | 0.0 | 0.00 | 0.04 | 0.00 | 69 | 1015.3 |
| 20260507184041 | 58 | 22 | 0.0 | 0.0 | 0.00 | 0.04 | 0.00 | 69 | 1015.3 |
| 20260507183553 | 59 | 13 | 0.0 | 0.0 | 0.00 | 0.04 | 0.00 | 69 | 1015.3 |
| 20260507183056 | 59 | 22 | 0.0 | 0.0 | 0.00 | 0.04 | 0.00 | 68 | 1015.3 |
| 20260507183012 | 58 | 23 | 0.0 | 0.0 | 0.00 | 0.01 | 0.00 | 68 | 1015.3 |
| 20260507182547 | 59 | 20 | 0.0 | 0.0 | 0.00 | 0.04 | 0.00 | 68 | 1015.3 |
| 20260507182054 | 59 | 26 | 0.0 | 0.0 | 0.00 | 0.04 | 0.00 | 68 | 1015.3 |
| 20260507181643 | 59 | 26 | 0.0 | 0.0 | 0.00 | 0.01 | 0.00 | 68 | 1015.2 |
| 20260507181543 | 59 | 26 | 0.0 | 0.0 | 0.00 | 0.04 | 0.00 | 68 | 1015.2 |
| 20260507181049 | 59 | 26 | 0.0 | 0.0 | 0.00 | 0.04 | 0.00 | 67 | 1015.2 |
| 20260507180559 | 59 | 26 | 0.0 | 0.0 | 0.00 | 0.04 | 0.00 | 67 | 1015.1 |
| 20260507180146 | 59 | 26 | 0.0 | 0.0 | 0.00 | 0.02 | 0.00 | 66 | 1015.1 |
| 20260507180045 | 60 | 26 | 0.0 | 0.0 | 0.00 | 0.08 | 0.00 | 66 | 1015.1 |
| 20260507175557 | 60 | 26 | 0.0 | 0.0 | 0.00 | 0.08 | 0.00 | 66 | 1015.0 |
| 20260507175041 | 60 | 26 | 0.0 | 0.0 | 0.00 | 0.08 | 0.00 | 66 | 1015.0 |
| 20260507174654 | 59 | 26 | 0.0 | 0.0 | 0.00 | 0.02 | 0.00 | 66 | 1015.0 |
| 20260507174552 | 60 | 26 | 0.0 | 0.0 | 0.00 | 0.08 | 0.00 | 66 | 1015.0 |
| 20260507174117 | 60 | 26 | 0.0 | 0.0 | 0.00 | 0.08 | 0.00 | 66 | 1015.0 |
| 20260507173604 | 60 | 26 | 0.0 | 0.0 | 0.00 | 0.08 | 0.00 | 66 | 1015.0 |
| 20260507173050 | 60 | 26 | 0.0 | 0.0 | 0.00 | 0.08 | 0.00 | 66 | 1014.9 |
| 20260507173004 | 60 | 26 | 0.0 | 0.0 | 0.00 | 0.02 | 0.00 | 66 | 1014.9 |
| 20260507172600 | 60 | 26 | 0.0 | 0.0 | 0.00 | 0.08 | 0.00 | 66 | 1014.9 |
| 20260507172044 | 60 | 26 | 0.0 | 0.0 | 0.00 | 0.08 | 0.00 | 65 | 1014.8 |
| 20260507171553 | 60 | 26 | 0.0 | 0.0 | 0.00 | 0.08 | 0.00 | 65 | 1014.8 |
| 20260507171039 | 61 | 26 | 0.0 | 0.0 | 0.00 | 0.08 | 0.00 | 66 | 1014.8 |
| 20260507170550 | 61 | 26 | 0.0 | 0.0 | 0.00 | 0.08 | 0.00 | 65 | 1014.8 |
| 20260507170157 | 60 | 26 | 0.0 | 0.0 | 0.00 | 0.02 | 0.00 | 64 | 1014.8 |
| 20260507170057 | 61 | 26 | 0.0 | 0.0 | 0.00 | 0.12 | 0.00 | 65 | 1014.8 |
| 20260507165548 | 61 | 26 | 0.0 | 0.0 | 0.00 | 0.12 | 0.00 | 64 | 1014.8 |
| 20260507165052 | 61 | 26 | 0.0 | 0.0 | 0.00 | 0.12 | 0.00 | 64 | 1014.9 |
| 20260507164648 | 60 | 26 | 0.0 | 0.0 | 0.00 | 0.02 | 0.00 | 64 | 1014.8 |
| 20260507164544 | 61 | 26 | 0.0 | 0.0 | 0.00 | 0.12 | 0.00 | 64 | 1014.8 |
| 20260507164053 | 61 | 26 | 0.0 | 0.0 | 0.00 | 0.12 | 0.00 | 65 | 1014.8 |
| 20260507163541 | 61 | 26 | 0.0 | 0.0 | 0.00 | 0.12 | 0.00 | 63 | 1014.8 |
| 20260507163150 | 60 | 26 | 0.0 | 0.0 | 0.00 | 0.02 | 0.00 | 63 | 1014.8 |
| 20260507163048 | 61 | 26 | 0.0 | 0.0 | 0.00 | 0.12 | 0.00 | 64 | 1014.8 |
| 20260507162540 | 61 | 26 | 0.0 | 0.0 | 0.00 | 0.12 | 0.00 | 64 | 1014.8 |
| 20260507162047 | 61 | 26 | 0.0 | 0.0 | 0.00 | 0.12 | 0.00 | 64 | 1014.8 |
| 20260507161700 | 60 | 26 | 0.0 | 0.0 | 0.00 | 0.02 | 0.00 | 62 | 1014.8 |
| 20260507161559 | 61 | 26 | 0.0 | 0.0 | 0.00 | 0.12 | 0.00 | 62 | 1014.8 |
| 20260507161045 | 61 | 26 | 0.0 | 0.0 | 0.00 | 0.12 | 0.00 | 63 | 1014.8 |
| 20260507160555 | 61 | 26 | 0.0 | 0.0 | 0.00 | 0.12 | 0.00 | 62 | 1014.8 |
| 20260507160145 | 61 | 26 | 0.0 | 0.0 | 0.00 | 0.02 | 0.00 | 62 | 1014.8 |
| 20260507160043 | 61 | 26 | 0.0 | 0.0 | 0.00 | 0.12 | 0.00 | 63 | 1014.8 |
| 20260507155553 | 62 | 26 | 0.0 | 0.0 | 0.00 | 0.12 | 0.00 | 63 | 1014.7 |
| 20260507155056 | 62 | 26 | 0.0 | 0.0 | 0.00 | 0.12 | 0.00 | 63 | 1014.7 |
| 20260507154648 | 61 | 30 | 0.0 | 0.0 | 0.00 | 0.02 | 0.00 | 62 | 1014.7 |
| 20260507154546 | 62 | 30 | 0.0 | 0.0 | 0.00 | 0.12 | 0.00 | 62 | 1014.7 |
| 20260507154053 | 62 | 30 | 0.0 | 0.0 | 0.00 | 0.12 | 0.00 | 62 | 1014.7 |
| 20260507153544 | 62 | 30 | 0.0 | 0.0 | 0.00 | 0.12 | 0.00 | 62 | 1014.7 |
| 20260507153052 | 62 | 30 | 0.0 | 0.0 | 0.00 | 0.12 | 0.00 | 63 | 1014.7 |
| 20260507153006 | 62 | 30 | 0.0 | 0.0 | 0.00 | 0.02 | 0.00 | 63 | 1014.7 |
| 20260507152604 | 62 | 30 | 0.0 | 0.0 | 0.00 | 0.12 | 0.00 | 63 | 1014.7 |
| 20260507152047 | 62 | 30 | 0.0 | 0.0 | 0.00 | 0.12 | 0.00 | 63 | 1014.7 |
| 20260507151701 | 62 | 29 | 0.0 | 0.0 | 0.00 | 0.02 | 0.00 | 63 | 1014.7 |
| 20260507151559 | 62 | 29 | 0.0 | 0.0 | 0.00 | 0.12 | 0.00 | 62 | 1014.6 |
| 20260507151046 | 63 | 29 | 0.0 | 0.0 | 0.00 | 0.12 | 0.00 | 62 | 1014.6 |
| 20260507150540 | 63 | 29 | 0.0 | 0.0 | 0.00 | 0.12 | 0.00 | 63 | 1014.5 |
| 20260507150104 | 63 | 26 | 0.0 | 0.0 | 0.00 | 0.12 | 0.00 | 62 | 1014.5 |
| 20260507145553 | 63 | 29 | 0.0 | 0.0 | 0.00 | 0.12 | 0.00 | 61 | 1014.5 |
| 20260507145059 | 63 | 24 | 0.0 | 0.0 | 0.00 | 0.12 | 0.00 | 60 | 1014.5 |
| 20260507144654 | 63 | 24 | 0.0 | 0.0 | 0.00 | 0.02 | 0.00 | 61 | 1014.5 |
| 20260507144551 | 63 | 360 | 0.0 | 0.0 | 0.00 | 0.12 | 0.00 | 61 | 1014.4 |
| 20260507144056 | 64 | 360 | 0.0 | 0.0 | 0.00 | 0.12 | 0.00 | 62 | 1014.4 |
| 20260507143548 | 64 | 360 | 0.0 | 0.0 | 0.00 | 0.12 | 0.00 | 60 | 1014.4 |
| 20260507143140 | 63 | 360 | 0.0 | 0.0 | 0.00 | 0.02 | 0.00 | 59 | 1014.5 |
| 20260507143039 | 64 | 360 | 0.0 | 0.0 | 0.00 | 0.12 | 0.00 | 60 | 1014.4 |
| 20260507142551 | 64 | 40 | 0.0 | 0.0 | 0.00 | 0.12 | 0.00 | 60 | 1014.4 |
| 20260507142037 | 64 | 40 | 0.0 | 0.0 | 0.00 | 0.12 | 0.00 | 59 | 1014.5 |
| 20260507141652 | 63 | 25 | 0.0 | 0.0 | 0.00 | 0.02 | 0.00 | 59 | 1014.6 |
| 20260507141549 | 64 | 360 | 0.0 | 0.0 | 0.00 | 0.12 | 0.00 | 58 | 1014.6 |
| 20260507141057 | 63 | 360 | 0.0 | 0.0 | 0.00 | 0.12 | 0.00 | 60 | 1014.6 |
| 20260507140545 | 63 | 13 | 0.0 | 0.0 | 0.00 | 0.12 | 0.00 | 61 | 1014.6 |
| 20260507140153 | 63 | 13 | 0.0 | 0.0 | 0.00 | 0.02 | 0.00 | 61 | 1014.7 |
| 20260507140053 | 63 | 13 | 0.0 | 0.0 | 0.00 | 0.12 | 0.00 | 60 | 1014.6 |
| 20260507135545 | 63 | 350 | 0.0 | 0.0 | 0.00 | 0.12 | 0.00 | 59 | 1014.6 |
| 20260507135050 | 63 | 349 | 0.0 | 0.0 | 0.00 | 0.12 | 0.00 | 60 | 1014.6 |
| 20260507134643 | 63 | 349 | 0.0 | 0.0 | 0.00 | 0.02 | 0.00 | 60 | 1014.8 |
| 20260507134542 | 63 | 346 | 0.0 | 0.0 | 0.00 | 0.12 | 0.00 | 59 | 1014.7 |
| 20260507134049 | 63 | 346 | 0.0 | 0.0 | 0.00 | 0.12 | 0.00 | 61 | 1014.8 |
| 20260507133559 | 64 | 360 | 0.0 | 0.0 | 0.00 | 0.12 | 0.00 | 60 | 1014.8 |
| 20260507133048 | 64 | 304 | 0.0 | 0.0 | 0.00 | 0.12 | 0.00 | 59 | 1014.8 |
| 20260507133002 | 63 | 304 | 0.0 | 0.0 | 0.00 | 0.02 | 0.00 | 59 | 1014.9 |
| 20260507132600 | 64 | 35 | 0.0 | 0.0 | 0.00 | 0.12 | 0.00 | 58 | 1014.8 |
| 20260507132045 | 65 | 33 | 0.0 | 0.0 | 0.00 | 0.12 | 0.00 | 57 | 1014.7 |
| 20260507131659 | 65 | 53 | 0.0 | 0.0 | 0.00 | 0.02 | 0.00 | 56 | 1014.8 |
| 20260507131557 | 65 | 21 | 0.0 | 0.0 | 0.00 | 0.12 | 0.00 | 57 | 1014.8 |
| 20260507131040 | 65 | 54 | 0.0 | 0.0 | 0.00 | 0.12 | 0.00 | 57 | 1014.7 |
| 20260507130552 | 64 | 52 | 0.0 | 0.0 | 0.00 | 0.12 | 0.00 | 59 | 1014.8 |
| 20260507130201 | 64 | 52 | 0.0 | 0.0 | 0.00 | 0.03 | 0.00 | 60 | 1014.7 |
| 20260507130100 | 64 | 51 | 0.0 | 0.0 | 0.00 | 0.16 | 0.00 | 59 | 1014.6 |
| 20260507125548 | 65 | 36 | 0.0 | 0.0 | 0.00 | 0.16 | 0.00 | 57 | 1014.6 |
| 20260507125056 | 65 | 53 | 0.0 | 0.0 | 0.00 | 0.16 | 0.00 | 57 | 1014.6 |
| 20260507124649 | 64 | 23 | 0.0 | 0.0 | 0.00 | 0.03 | 0.00 | 61 | 1014.6 |
| 20260507124548 | 65 | 20 | 0.0 | 0.0 | 0.00 | 0.16 | 0.00 | 61 | 1014.6 |
| 20260507124111 | 65 | 20 | 0.0 | 0.0 | 0.00 | 0.16 | 0.00 | 58 | 1014.6 |
| 20260507123601 | 66 | 22 | 0.0 | 0.0 | 0.00 | 0.16 | 0.00 | 56 | 1014.6 |
| 20260507123149 | 66 | 47 | 0.0 | 0.0 | 0.00 | 0.03 | 0.00 | 58 | 1014.6 |
| 20260507123047 | 66 | 47 | 0.0 | 0.0 | 0.00 | 0.16 | 0.00 | 59 | 1014.5 |
| 20260507122559 | 65 | 239 | 0.0 | 0.0 | 0.00 | 0.16 | 0.00 | 58 | 1014.5 |
| 20260507122105 | 65 | 243 | 0.0 | 0.0 | 0.00 | 0.16 | 0.00 | 58 | 1014.6 |
| 20260507121659 | 64 | 59 | 0.0 | 0.0 | 0.00 | 0.03 | 0.00 | 59 | 1014.6 |
| 20260507121557 | 65 | 59 | 0.0 | 0.0 | 0.00 | 0.16 | 0.00 | 60 | 1014.5 |
| 20260507121045 | 65 | 24 | 0.0 | 0.0 | 0.00 | 0.16 | 0.00 | 61 | 1014.6 |
| 20260507120556 | 65 | 51 | 0.0 | 0.0 | 0.00 | 0.16 | 0.00 | 59 | 1014.6 |
| 20260507120145 | 65 | 44 | 0.0 | 0.0 | 0.00 | 0.03 | 0.00 | 59 | 1014.6 |
| 20260507120044 | 65 | 44 | 0.0 | 0.0 | 0.00 | 0.16 | 0.00 | 58 | 1014.6 |
| 20260507115556 | 65 | 44 | 0.0 | 0.0 | 0.00 | 0.16 | 0.00 | 59 | 1014.6 |
| 20260507115103 | 65 | 69 | 0.0 | 0.0 | 0.00 | 0.16 | 0.00 | 61 | 1014.6 |
| 20260507114655 | 64 | 59 | 0.0 | 0.0 | 0.00 | 0.03 | 0.00 | 64 | 1014.6 |
| 20260507114555 | 64 | 57 | 0.0 | 0.0 | 0.00 | 0.16 | 0.00 | 63 | 1014.6 |
| 20260507114043 | 64 | 57 | 0.0 | 0.0 | 0.00 | 0.16 | 0.00 | 58 | 1014.6 |
| 20260507113553 | 64 | 34 | 0.0 | 0.0 | 0.00 | 0.16 | 0.00 | 60 | 1014.6 |
| 20260507113109 | 64 | 26 | 0.0 | 0.0 | 0.00 | 0.16 | 0.00 | 61 | 1014.7 |
| 20260507113005 | 64 | 25 | 0.0 | 0.0 | 0.00 | 0.03 | 0.00 | 62 | 1014.6 |
| 20260507111503 | 65 | 26 | 0.0 | 0.0 | 0.00 | 0.03 | 0.00 | 60 | 1014.6 |
| 20260507104555 | 63 | 49 | 0.0 | 0.0 | 0.00 | 0.09 | 0.00 | 66 | 1014.7 |
| 20260507103056 | 63 | 48 | 0.0 | 0.0 | 0.00 | 0.09 | 0.00 | 65 | 1014.7 |
| 20260507101551 | 63 | 49 | 0.0 | 0.0 | 0.00 | 0.09 | 0.00 | 72 | 1014.8 |
| 20260507100051 | 62 | 23 | 0.0 | 0.0 | 0.00 | 0.15 | 0.00 | 75 | 1014.5 |
| 20260507094556 | 62 | 5 | 0.0 | 0.0 | 0.00 | 0.15 | 0.00 | 78 | 1014.6 |
| 20260507093041 | 60 | 26 | 0.0 | 0.0 | 0.00 | 0.15 | 0.00 | 82 | 1014.5 |
| 20260507091538 | 60 | 348 | 0.0 | 0.0 | 0.00 | 0.15 | 0.00 | 88 | 1014.4 |
| 20260507090034 | 58 | 41 | 0.0 | 0.0 | 0.00 | 0.17 | 0.00 | 93 | 1014.4 |
| 20260507084533 | 57 | 355 | 0.0 | 0.0 | 0.00 | 0.17 | 0.00 | 96 | 1014.4 |
| 20260507083027 | 56 | 44 | 0.0 | 0.0 | 0.00 | 0.17 | 0.00 | 97 | 1014.3 |
| 20260507081526 | 54 | 360 | 0.0 | 0.0 | 0.00 | 0.17 | 0.00 | 97 | 1014.2 |
| 20260507080019 | 52 | 360 | 0.0 | 0.0 | 0.00 | 0.18 | 0.00 | 97 | 1014.2 |
| 20260507074517 | 51 | 319 | 0.0 | 0.0 | 0.00 | 0.18 | 0.00 | 97 | 1014.1 |
| 20260507073013 | 50 | 355 | 0.0 | 0.0 | 0.00 | 0.18 | 0.00 | 97 | 1014.0 |
| 20260507071514 | 50 | 355 | 0.0 | 0.0 | 0.00 | 0.18 | 0.00 | 97 | 1013.9 |
| 20260507070018 | 50 | 20 | 0.0 | 0.0 | 0.00 | 0.21 | 0.00 | 97 | 1013.9 |
| 20260507064513 | 49 | 28 | 0.0 | 0.0 | 0.00 | 0.21 | 0.00 | 97 | 1013.9 |
| 20260507063007 | 49 | 28 | 0.0 | 0.0 | 0.00 | 0.21 | 0.00 | 97 | 1013.7 |
| 20260507061503 | 49 | 28 | 0.0 | 0.0 | 0.00 | 0.21 | 0.00 | 97 | 1013.4 |
| 20260507054559 | 48 | 29 | 0.0 | 0.0 | 0.00 | 0.25 | 0.00 | 97 | 1013.3 |
| 20260507053124 | 48 | 23 | 0.0 | 0.0 | 0.00 | 0.25 | 0.00 | 97 | 1013.0 |
| 20260507051556 | 48 | 23 | 0.0 | 0.0 | 0.00 | 0.25 | 0.00 | 97 | 1012.9 |
| 20260507050054 | 48 | 23 | 0.0 | 0.0 | 0.00 | 0.28 | 0.00 | 96 | 1012.6 |
| 20260507044606 | 48 | 23 | 0.0 | 0.0 | 0.00 | 0.28 | 0.00 | 96 | 1012.5 |
| 20260507043051 | 48 | 23 | 0.0 | 0.0 | 0.00 | 0.28 | 0.00 | 96 | 1012.3 |
| 20260507041551 | 48 | 23 | 0.0 | 0.0 | 0.00 | 0.28 | 0.00 | 96 | 1012.2 |
| 20260507040049 | 48 | 23 | 0.0 | 0.0 | 0.00 | 0.33 | 0.00 | 96 | 1012.1 |
| 20260507034548 | 48 | 25 | 0.0 | 0.0 | 0.00 | 0.33 | 0.00 | 97 | 1012.0 |
| 20260507033100 | 48 | 25 | 0.0 | 0.0 | 0.00 | 0.33 | 0.00 | 97 | 1012.0 |
| 20260507031557 | 48 | 25 | 0.0 | 0.0 | 0.00 | 0.33 | 0.00 | 97 | 1012.0 |
| 20260507024603 | 48 | 25 | 0.0 | 0.0 | 0.00 | 0.38 | 0.00 | 96 | 1011.9 |
| 20260507023043 | 47 | 25 | 0.0 | 0.0 | 0.00 | 0.38 | 0.00 | 96 | 1011.8 |
| 20260507021550 | 47 | 25 | 0.0 | 0.0 | 0.00 | 0.38 | 0.00 | 96 | 1011.7 |
| 20260507020053 | 47 | 25 | 0.0 | 0.0 | 0.00 | 0.43 | 0.00 | 96 | 1011.7 |
| 20260507014551 | 47 | 25 | 0.0 | 0.0 | 0.00 | 0.43 | 0.00 | 96 | 1011.5 |
| 20260507013042 | 47 | 25 | 0.0 | 0.0 | 0.00 | 0.43 | 0.00 | 96 | 1011.5 |
| 20260507011545 | 47 | 25 | 0.0 | 0.0 | 0.00 | 0.43 | 0.00 | 96 | 1011.4 |
| 20260507010043 | 47 | 25 | 0.0 | 0.0 | 0.00 | 0.48 | 0.00 | 96 | 1011.3 |
| 20260507004536 | 47 | 25 | 0.0 | 0.0 | 0.00 | 0.48 | 0.00 | 96 | 1011.4 |
| 20260507003035 | 47 | 25 | 0.0 | 0.0 | 0.00 | 0.48 | 0.00 | 96 | 1011.2 |
| 20260507001535 | 47 | 25 | 0.0 | 0.0 | 0.00 | 0.48 | 0.00 | 96 | 1011.0 |
| 20260507000035 | 48 | 25 | 0.0 | 0.0 | 0.00 | 0.50 | 0.00 | 96 | 1011.0 |
| 20260506234538 | 48 | 25 | 0.0 | 0.0 | 0.00 | 0.50 | 0.00 | 96 | 1011.0 |
| 20260506233032 | 48 | 25 | 0.0 | 0.0 | 0.00 | 0.50 | 0.00 | 96 | 1010.9 |
| 20260506231534 | 48 | 25 | 0.0 | 0.0 | 0.00 | 0.50 | 0.00 | 96 | 1011.0 |
| 20260506230029 | 48 | 25 | 0.0 | 0.0 | 0.00 | 0.53 | 0.00 | 96 | 1010.8 |
| 20260506224529 | 48 | 25 | 0.0 | 0.0 | 0.00 | 0.53 | 0.00 | 96 | 1010.7 |
| 20260506223027 | 48 | 25 | 0.0 | 0.0 | 0.00 | 0.53 | 0.00 | 96 | 1010.6 |
| 20260506221526 | 48 | 25 | 0.0 | 0.0 | 0.00 | 0.53 | 0.00 | 96 | 1010.6 |
| 20260506220024 | 48 | 25 | 0.0 | 0.0 | 0.00 | 0.54 | 0.53 | 96 | 1010.6 |
| 20260506214525 | 48 | 25 | 0.0 | 0.0 | 0.00 | 0.54 | 0.53 | 96 | 1010.5 |
| 20260506213022 | 48 | 25 | 0.0 | 0.0 | 0.00 | 0.54 | 0.53 | 96 | 1010.4 |
| 20260506211523 | 48 | 25 | 0.0 | 0.0 | 0.00 | 0.54 | 0.53 | 96 | 1010.3 |
| 20260506210019 | 48 | 25 | 0.0 | 0.0 | 0.00 | 0.54 | 0.53 | 96 | 1010.1 |
| 20260506204518 | 49 | 25 | 0.0 | 0.0 | 0.00 | 0.54 | 0.53 | 96 | 1010.1 |
| 20260506203016 | 49 | 26 | 0.0 | 0.0 | 0.00 | 0.54 | 0.53 | 96 | 1010.1 |
| 20260506201518 | 49 | 26 | 0.0 | 0.0 | 0.00 | 0.54 | 0.53 | 96 | 1009.8 |
| 20260506200012 | 49 | 24 | 0.0 | 0.0 | 0.00 | 0.54 | 0.53 | 96 | 1009.7 |
| 20260506194513 | 49 | 20 | 0.0 | 0.0 | 0.01 | 0.54 | 0.53 | 96 | 1009.6 |